METEOR 2-11 DEB, 40704

Orbit data source: Space-Track

METEOR 2-11 DEB, 40704 is space debris in LEO originally from a launch on Thu, 05 Jul 1984 UTC launched from the Plesetsk Missile And Space Complex (PKMTR). Debris objects in space refer to the collection of defunct objects orbiting the Earth. Examples of debris include non-operational satellites, rocket bodies, and fragments generated from explosions, collisions, or faulty payload assembly.

Loading next visibility...
Identifier
40704, 1984-072F
Orbit
LEO
Last TLE update
9 hours ago
Origin
Manufacturer
Unknown
Mission
Spacecraft
Bus & Motor
Unknown
Mass
Unknown
Launch date (UTC)
1984-07-05 (41 years ago)
Launch vehicle
Unknown
Launch site
Plesetsk Missile And Space Complex (PKMTR)
Object type
Payload
Rocket body
Debris
Shape & HBR
Unknown
Radar Cross Section
Small (<0.1 m²)

Expand to show TLE details & history

TLE from 9 hours ago
0 METEOR 2-11 DEB
1 40704U 84072F   25128.88429308  .00003309  00000-0  23380-2 0  9999
2 40704  82.5175 335.6142 0029493  54.0409 306.3487 13.97400832510888
Epoch: 2025-05-08T21:13Z
Definitive object data (Epoch: 2025-05-08T21:13:22.922Z)
Latitude
-0.00004°
Longitude
150.3203°
Altitude
893.04 km
Speed
7.412 km/s
True Right ascension
22h 22m 27s
True Declination
0° 00' 00"
Sunlit
Object was in daylight at TLE epoch
Visualization TLE readout
Latitude
21.75875°
Longitude
153.01414°
Altitude
887.055 km
Speed
7.42 km/s
Apparent Right ascension
00h 00m 34s
Apparent Declination
-7° 34' 24"
Sunlit
Object is in daylight
Visualization observer readout
Local Sidereal Time
14:03:53
Azimuth
48.777° ENE
Elevation
-47.513°
Doppler factor
1
Orbital elements
Apogee altitude
921.41 km
Perigee altitude
878.479 km
Semi-major axis
7,278.081 km
Eccentricity
0.0029493
Inclination
82.5175°
RAAN
335.6142°
Arg. of periapsis
54.0409°
True anomaly
306.0759°
Mean anomaly
306.3487°
Eccentric anomaly
306.21236°
Mean motion
3.49557 °/min
BSTAR
0.002338
Orbital period
102.99 mins
Loading maneuver chart data...
Loading SW <> Apogee altitude chart data...
Loading historical data...
Loading historical data...
Loading historical data...
Loading historical data...
Loading historical data...
Loading historical data...
Loading historical data...

METEOR 2-11 DEB Visibility forecast

Observer location: undefined°, undefined°

Span
Click to sort rows by Start time (UTC) header in descending order
Start Az.
Max El. time (UTC)
Max El. Az.
Max El.
End time (UTC)
End Az.
9 mins2025-05-09 14:32:08.439Z186.888° SSW2025-05-09 14:36:08.439Z355.586° N44.813°2025-05-09 14:41:08.439Z7.256° NNE
10 mins2025-05-10 01:18:08.439Z1.697° NNE2025-05-10 01:23:08.439Z101.726° ESE41.31°2025-05-10 01:28:08.439Z160.743° S
5 mins2025-05-10 03:04:08.439Z298.762° NW2025-05-10 03:06:08.439Z275.057° WNW16.024°2025-05-10 03:09:08.439Z242.571° WSW
|